ONEWEB-0088, 45457

Orbit data source: Space-Track

ONEWEB-0088, 45457 is a payload satellite owned by One Web (UK) in LEO that was launched on Sat, 21 Mar 2020 UTC via a SOYUZ-2-1B launch vehicle from the Tyuratam Missile And Space Complex (TTMTR). Payload-class satellites include a variety of spacecraft equipped with specific instruments for various scientific and technological missions. These include communications satellites like Starlink; space stations such as the ISS; scientific satellites like the Hubble; Earth observation satellites from companies like Planet Labs, Umbra, and HawkEye 360; GPS; miniature CubeSats for education and research; and military/defense satellites.

Loading next visibility...
Identifier
45457, 2020-020AK
Orbit
LEO
Last TLE update
1 day ago
Origin
Manufacturer
One Web
Mission
Operational Commercial Communications
Bus & Motor
ARROW, Unknown motor
Mass
148 kg wet, ~140 kg dry
Launch date (UTC)
2020-03-21 (5 years ago)
Launch vehicle
SOYUZ-2-1B
Launch site
Tyuratam Missile And Space Complex (TTMTR)
Object type
Payload
Rocket body
Debris
Shape & HBR
Trap Box + 2 Pan, 5 m
Radar Cross Section
2.957 m², Large (>1 m²)

Expand to show TLE details & history

TLE from 1 day ago
0 ONEWEB-0088
1 45457U 20020AK  25182.77496222 -.00000501  00000-0 -14500-2 0  9996
2 45457  87.8834  90.8437 0001823  78.7891 281.3442 13.11417496256611
Epoch: 2025-07-01T18:35Z
TLE epoch observation values (Epoch: 2025-07-01T18:35:56.735Z)
Latitude
-0.00002°
Longitude
-108.20828°
Altitude
1,220.297 km
Speed
7.244 km/s
True Right ascension
06h 03m 22s
True Declination
0° 00' 00"
Sunlit
Object was in daylight at epoch
Visualization orbit readout
Latitude
71.06475°
Longitude
65.34496°
Altitude
1,228.887 km
Speed
7.247 km/s
Apparent Right ascension
05h 46m 55s
Apparent Declination
51° 59' 05"
Sunlit
Object is in daylight
Visualization observer readout
Local Sidereal Time
17:42:12
Azimuth
359.274° N
Elevation
1.907°
Doppler factor
1
Orbital elements
Apogee altitude
1,216.183 km
Perigee altitude
1,213.415 km
Semi-major axis
7,592.936 km
Eccentricity
0.00018
Inclination
87.8834°
RAAN
90.8437°
Arg. of periapsis
78.7891°
True anomaly
Unknown
Mean anomaly
281.3442°
Eccentric anomaly
Unknown
Mean motion
3.28041 °/min
Orbital period
109.74 mins
BSTAR
-0.00145
Loading maneuver chart data...
Loading SW <> Apogee altitude chart data...
Loading historical data...
Loading historical data...
Loading historical data...
Loading historical data...
Loading historical data...
Loading historical data...
Loading historical data...

ONEWEB-0088 Visibility forecast

Observer location: undefined°, undefined°

Span
Click to sort rows by Start time (UTC) header in descending order
Start Az.
Max El. time (UTC)
Max El. Az.
Max El.
End time (UTC)
End Az.
13 mins2025-07-03 05:59:36.725Z0.524° NNE2025-07-03 06:06:36.725Z158.163° S44.497°2025-07-03 06:12:36.725Z179.285° S
6 mins2025-07-03 07:52:36.725Z309.671° NW2025-07-03 07:54:36.725Z291.652° WNW15.413°2025-07-03 07:58:36.725Z256.863° W
6 mins2025-07-03 16:33:36.725Z91.799° ESE2025-07-03 16:35:36.725Z73.557° E15.459°2025-07-03 16:39:36.725Z39.245° NE
13 mins2025-07-03 18:18:36.725Z180.943° SSW2025-07-03 18:24:36.725Z258.905° W44.923°2025-07-03 18:31:36.725Z359.674° N
5 mins2025-07-03 20:13:36.725Z271.467° WNW2025-07-03 20:15:36.725Z288.938° WNW13.595°2025-07-03 20:18:36.725Z314.366° NW
8 mins2025-07-04 05:48:36.725Z3.691° NNE2025-07-04 05:54:36.725Z108.595° ESE44.252°2025-07-04 05:56:36.725Z163.972° S
|